Location: Cheyres
(46.8153°N, 6.7877°E)
Time: 02:10:15
(UTC+00:00)

USA 215 - Pass Details

Date: 11 May 2021
Orbit: 1100 x 1107 km, 123.0° (Epoch: 14 June)

Event Time Altitude Azimuth Distance (km) Brightness Sun altitude
Rises 21:27:51 0° 84° (E) 3,916 5.9 -19.5°
Reaches altitude 10° 21:30:28 10° 77° (ENE) 2,960 5.3 -19.8°
Maximum altitude 21:36:26 40° 11° (NNE) 1,578 4.5 -20.3°
Drops below altitude 10° 21:42:25 10° 305° (NW) 2,965 6.4 -20.8°
Sets 21:45:03 0° 299° (WNW) 3,925 7.0 -21.0°
